[[{"header":{"parameterUnit":"m.s-1","parameterCategory":2,"la1":30.2991,"la2":30.254,"lo1":-89.0895,"lo2":-89.0444,"dy":0.0017,"dx":0.0017,"nx":28,"ny":28,"refTime":"2023-04-22T21:00:00:Z","depth":"0","parameterNumber":2,"parameterNumberName":"U-component_of_CURRENTS"},"data":[0,0,0,0,0,0,0,0,0,0,0,0,0,0,0,0,0,0,0,0,0,0,0,0,0,0,0,0,0,0,0,0,0,0,0,0,0,0,0,0,0,0,0,0,0,0,0,0,0,0,0,0,0,0,0,0,0,0,0.366,0.366,0,0.3664,0.3664,0.3664,0.3619,0.3618,0.3617,0.3616,0.3535,0.3534,0.3533,0,0,0,0,0,0,0,0,0,0,0,0,0,0.3597,0.3598,0.366,0.366,0.3661,0.3665,0.3664,0.3664,0.3619,0.3618,0.3617,0.3616,0.3536,0.3534,0.3532,0,0,0,0,0,0,0,0,0,0,0,0,0,0.3611,0.3599,0.366,0.3642,0.3641,0.3665,0.3664,0.3664,0.3619,0.3618,0.3616,0.3615,0.3536,0.3534,0.3532,0.3544,0,0,0.3526,0.3525,0,0,0,0,0,0,0,0,0.361,0.3613,0.3644,0.3644,0.3642,0.3644,0.3613,0.3621,0.3619,0.3622,0.3616,0.3615,0.3568,0.3563,0.3561,0.354,0.3537,0.3526,0.3524,0.3524,0.3523,0,0,0,0,0,0,0,0.361,0.3612,0.3657,0.3645,0.3644,0.363,0.363,0.3614,0.3597,0.3622,0.362,0.3628,0.3566,0.3563,0.3559,0.3536,0.3526,0.3524,0.3523,0.3522,0.3528,0.353,0,0,0,0,0,0,0.3621,0.3612,0.3657,0.3658,0.3628,0.3632,0.3632,0.3641,0.3599,0.3593,0.3629,0.3626,0.3567,0.3561,0.3556,0.358,0.3524,0.3522,0.352,0.3527,0.3529,0.353,0,0,0,0,0,0,0.362,0.3625,0.3657,0.3638,0.3642,0.3635,0.3645,0.3642,0.3645,0.3606,0.3597,0.3637,0.3566,0.3558,0.353,0.3576,0.3521,0.3519,0.3525,0.3528,0.353,0.3621,0,0,0,0,0,0,0.3618,0.3624,0.3638,0.3639,0.3644,0.3679,0.3646,0.3643,0.3654,0.365,0.361,0.3601,0.3565,0.3533,0.3527,0.3572,0.3517,0.3524,0.3526,0.3529,0.3616,0.3626,0.3634,0,0,0,0,0,0.3615,0.3634,0.3639,0.3645,0.3662,0.368,0.3681,0.3668,0.3656,0.3665,0.3622,0.3602,0.3547,0.3531,0.3525,0.357,0.3522,0.3526,0.3529,0.3612,0.3624,0.3634,0,0,0,0,0,0,0.3579,0.3632,0.3637,0.3661,0.3677,0.3674,0.3687,0.3681,0.3659,0.3651,0.3604,0.3592,0.359,0.3565,0.3549,0.3581,0.354,0.3542,0.3605,0.3616,0.3625,0.3647,0.3515,0,0,0,0,0,0.3591,0.3639,0.366,0.3679,0.3694,0.3696,0.3704,0.37,0.3683,0.3673,0.3645,0.3618,0.3601,0.3593,0.357,0.3581,0.3604,0.3612,0.3621,0.3629,0.3643,0.3686,0.3701,0.3541,0.3541,0.3541,0,0,0.3574,0.3617,0.3635,0.368,0.3691,0.3713,0.3696,0.3718,0.3732,0.3668,0.367,0.3644,0.3608,0.3615,0.3616,0.3598,0.3699,0.3633,0.364,0.365,0.3691,0.3707,0.3721,0.3543,0.3543,0.3542,0,0,0.3577,0.3614,0.3655,0.3687,0.3731,0.3735,0.3748,0.3759,0.3763,0.3762,0.3726,0.3726,0.3692,0.3689,0.3678,0.3729,0.374,0.3729,0.3798,0.384,0.3854,0.3866,0.3971,0.3991,0.3739,0.374,0.374,0,0.3557,0.361,0.3662,0.371,0.3724,0.3748,0.3763,0.3788,0.3785,0.379,0.377,0.3755,0.3734,0.3753,0.3775,0.3754,0.3792,0.3758,0.3854,0.3866,0.3877,0.398,0.4002,0.3744,0.3744,0.3743,0.3743,0,0.3585,0.3634,0.366,0.3734,0.3753,0.3779,0.3814,0.3839,0.3842,0.3856,0.3877,0.3856,0.3847,0.3858,0.383,0.3905,0.3917,0.3857,0.3829,0.3899,0.4004,0.4025,0.3751,0.3749,0.3748,0.3747,0,0,0.3525,0.3655,0.3662,0.3698,0.3767,0.3778,0.3825,0.3859,0.3902,0.3915,0.3958,0.3956,0.3964,0.3955,0.3944,0.3994,0.4132,0.3971,0.3971,0.4083,0.4281,0.4283,0.4306,0.4082,0.4085,0.4087,0.4344,0,0.3525,0.3604,0.3664,0.3712,0.3745,0.3792,0.3836,0.3878,0.3919,0.3981,0.4001,0.4044,0.3999,0.4024,0.4061,0.4116,0.4182,0.4071,0.4189,0.4195,0.4192,0.4327,0.4162,0.4374,0.4364,0.4368,0.437,0,0.3532,0.3587,0.3631,0.3719,0.3734,0.3764,0.3828,0.388,0.3986,0.4024,0.4074,0.4111,0.4211,0.4152,0.4293,0.4225,0.4264,0.4301,0.431,0.4289,0.4233,0.429,0.4412,0.4468,0.4402,0.44,0.4397,0,0.346,0.3561,0.359,0.362,0.3722,0.3741,0.3786,0.3882,0.3965,0.408,0.4183,0.4237,0.4361,0.4371,0.4472,0.4392,0.4641,0.4528,0.4571,0.4574,0.4446,0.4432,0.4634,0.4616,0.4615,0.4614,0.4614,0,0.3446,0.3471,0.3568,0.3588,0.3638,0.3709,0.3787,0.3854,0.4003,0.4146,0.4219,0.4364,0.4428,0.4574,0.4554,0.4681,0.4711,0.4636,0.4644,0.4479,0.4466,0.4512,0.4507,0.4624,0.4622,0.462,0.4618,0,0.3382,0.3448,0.3498,0.3587,0.3619,0.3655,0.3806,0.3896,0.4046,0.425,0.4316,0.4545,0.4746,0.4817,0.493,0.4867,0.4833,0.4933,0.4781,0.4764,0.4782,0.4785,0.4707,0.4554,0.5015,0.5017,0.5018,0,0.337,0.3387,0.3479,0.3537,0.3586,0.3666,0.3751,0.3886,0.4021,0.4357,0.448,0.477,0.495,0.5159,0.5107,0.5134,0.4966,0.4974,0.4756,0.4826,0.4836,0.4584,0.4439,0.4659,0.4657,0.4656,0.4655,0,0.3343,0.3368,0.3415,0.3532,0.3619,0.3692,0.3832,0.3929,0.4153,0.4344,0.4626,0.4801,0.5097,0.509,0.5175,0.5112,0.4799,0.4947,0.5032,0.4611,0.4333,0.4174,0.451,0.4643,0.4644,0.4645,0.4645,0.4646,0.3334,0.337,0.3458,0.3544,0.3632,0.3702,0.3727,0.3911,0.4071,0.4308,0.4573,0.4754,0.4989,0.5088,0.5034,0.4941,0.4797,0.4779,0.4802,0.4562,0.4318,0.4676,0.4788,0.479,0.4792,0.4794,0.4795,0,0.3328,0.3395,0.3488,0.3576,0.3608,0.3671,0.3783,0.3793,0.3915,0.4148,0.434,0.4579,0.4698,0.4822,0.4906,0.4836,0.4479,0.4749,0.4377,0.4251,0.4632,0.4525,0.4566,0.4566,0.4566,0.4566,0.4566,0.4566,0.3361,0.3443,0.3477,0.3524,0.3566,0.3549,0.3557,0.3588,0.3689,0.3793,0.3897,0.407,0.4559,0.4964,0.5041,0.4888,0.4601,0.4392,0.4391,0.4768,0.477,0.4773,0.4677,0.4749,0.4749,0.3749,0.3743,0.3739]},{"header":{"parameterUnit":"m.s-1","parameterCategory":2,"la1":30.2991,"la2":30.254,"lo1":-89.0895,"lo2":-89.0444,"dy":0.0017,"dx":0.0017,"nx":28,"ny":28,"refTime":"2023-04-22T21:00:00:Z","depth":"0","parameterNumber":3,"parameterNumberName":"V-component_of_CURRENTS"},"data":[0,0,0,0,0,0,0,0,0,0,0,0,0,0,0,0,0,0,0,0,0,0,0,0,0,0,0,0,0,0,0,0,0,0,0,0,0,0,0,0,0,0,0,0,0,0,0,0,0,0,0,0,0,0,0,0,0,0,-0.0279,-0.0279,0,-0.0301,-0.0301,-0.0301,-0.0333,-0.0334,-0.0334,-0.0335,-0.0375,-0.0376,-0.0377,0,0,0,0,0,0,0,0,0,0,0,0,0,-0.0276,-0.0276,-0.0279,-0.0279,-0.028,-0.0301,-0.0301,-0.0301,-0.0333,-0.0334,-0.0335,-0.0335,-0.0375,-0.0376,-0.0377,0,0,0,0,0,0,0,0,0,0,0,0,0,-0.0286,-0.0276,-0.0279,-0.0298,-0.03,-0.0301,-0.0301,-0.0302,-0.0333,-0.0334,-0.0335,-0.0335,-0.0375,-0.0376,-0.0377,-0.0367,0,0,-0.038,-0.038,0,0,0,0,0,0,0,0,-0.0285,-0.0286,-0.0295,-0.0296,-0.0299,-0.0315,-0.0315,-0.0324,-0.0333,-0.0321,-0.0335,-0.0336,-0.0356,-0.0358,-0.0361,-0.0369,-0.0371,-0.038,-0.038,-0.0381,-0.0381,0,0,0,0,0,0,0,-0.0284,-0.0285,-0.0288,-0.0295,-0.0297,-0.0308,-0.0311,-0.0317,-0.0335,-0.0322,-0.0324,-0.0326,-0.0357,-0.036,-0.0363,-0.0371,-0.038,-0.038,-0.0381,-0.0381,-0.0377,-0.0376,0,0,0,0,0,0,-0.0279,-0.0284,-0.0288,-0.0289,-0.0293,-0.0308,-0.031,-0.0309,-0.0334,-0.0338,-0.0325,-0.0327,-0.0358,-0.0361,-0.0364,-0.0343,-0.0381,-0.0381,-0.0382,-0.0378,-0.0377,-0.0376,0,0,0,0,0,0,-0.0279,-0.0279,-0.0287,-0.0287,-0.0289,-0.0307,-0.0305,-0.0309,-0.0311,-0.0336,-0.0341,-0.0322,-0.0359,-0.0363,-0.0349,-0.0345,-0.0382,-0.0383,-0.0378,-0.0377,-0.0376,-0.0308,0,0,0,0,0,0,-0.0279,-0.0279,-0.0275,-0.0286,-0.0288,-0.0275,-0.0305,-0.0309,-0.031,-0.0313,-0.0335,-0.034,-0.036,-0.0347,-0.035,-0.0347,-0.0383,-0.0379,-0.0378,-0.0377,-0.0311,-0.0304,-0.0299,0,0,0,0,0,-0.0278,-0.0261,-0.0274,-0.0275,-0.0283,-0.0274,-0.0275,-0.0292,-0.0309,-0.0299,-0.0307,-0.0339,-0.0343,-0.0346,-0.035,-0.0348,-0.038,-0.0378,-0.0377,-0.0313,-0.0306,-0.0299,0,0,0,0,0,0,-0.0238,-0.0264,-0.0278,-0.0265,-0.0267,-0.0279,-0.0269,-0.0285,-0.0285,-0.0287,-0.0317,-0.0321,-0.0313,-0.0334,-0.0338,-0.0344,-0.0372,-0.0371,-0.0323,-0.0316,-0.031,-0.0287,-0.0384,0,0,0,0,0,-0.0232,-0.0239,-0.0251,-0.0239,-0.0237,-0.0254,-0.0253,-0.0264,-0.0267,-0.0269,-0.0288,-0.0305,-0.0309,-0.0314,-0.0324,-0.0316,-0.0347,-0.0322,-0.0316,-0.0311,-0.0295,-0.033,-0.0326,-0.0371,-0.0371,-0.0371,0,0,-0.0215,-0.0228,-0.0231,-0.0234,-0.0236,-0.0215,-0.0254,-0.0243,-0.0225,-0.0272,-0.0253,-0.028,-0.0301,-0.0294,-0.0295,-0.0311,-0.0316,-0.0309,-0.0304,-0.0291,-0.0328,-0.0324,-0.032,-0.037,-0.037,-0.0371,0,0,-0.0169,-0.0189,-0.0175,-0.0174,-0.0176,-0.0183,-0.0177,-0.0188,-0.0192,-0.0179,-0.0209,-0.0224,-0.0238,-0.0251,-0.0259,-0.0225,-0.0281,-0.0242,-0.0195,-0.023,-0.0226,-0.0224,-0.0264,-0.0266,-0.0243,-0.0243,-0.0242,0,-0.0146,-0.0128,-0.0164,-0.014,-0.0124,-0.0163,-0.0121,-0.0129,-0.0137,-0.013,-0.0163,-0.0186,-0.0215,-0.0199,-0.0194,-0.0212,-0.0243,-0.0219,-0.0222,-0.022,-0.0218,-0.0261,-0.0263,-0.0239,-0.0239,-0.024,-0.024,0,-0.0081,-0.007,-0.0053,-0.0044,-0.003,-0.0003,-0.0012,-0.0005,-0.0027,-0.0046,-0.0047,-0.0091,-0.0106,-0.013,-0.0151,-0.0152,-0.0182,-0.0208,-0.0238,-0.0209,-0.0256,-0.026,-0.0234,-0.0235,-0.0236,-0.0237,0,0,-0.0023,-0.0012,-0.0006,0.0021,0.0025,0.0052,0.0083,0.0104,0.0126,0.008,0.0105,0.006,0.001,-0.0002,-0.0049,-0.0087,-0.0117,-0.0139,-0.0143,-0.0176,-0.02,-0.022,-0.0227,-0.0148,-0.0148,-0.0148,-0.024,0,0.0042,0.0109,0.0095,0.0168,0.0209,0.019,0.0225,0.0231,0.0214,0.0221,0.0154,0.0151,0.0066,0.0057,0.0004,-0.0078,-0.0122,-0.009,-0.0225,-0.0229,-0.0248,-0.023,-0.0222,-0.0303,-0.0244,-0.0245,-0.0246,0,0.0113,0.0148,0.0232,0.0281,0.0299,0.0337,0.0394,0.0415,0.0401,0.0384,0.0347,0.0286,0.0233,0.0154,0.0012,0.0035,-0.007,-0.0151,-0.0157,-0.0197,-0.0255,-0.0322,-0.0313,-0.0569,-0.0252,-0.0251,-0.0251,0,0.0187,0.0245,0.0319,0.0336,0.0382,0.0429,0.046,0.0469,0.0503,0.0488,0.0498,0.0406,0.0377,0.023,0.0056,0.0032,-0.0101,-0.016,-0.0278,-0.0282,-0.031,-0.0316,-0.0558,-0.0253,-0.0253,-0.0253,-0.0252,0,0.026,0.0317,0.0361,0.0404,0.0498,0.0509,0.0598,0.0606,0.0634,0.0695,0.0584,0.062,0.0394,0.0289,0.0107,-0.0087,-0.0068,-0.0259,-0.03,-0.0287,-0.0289,-0.0541,-0.0718,-0.0256,-0.0255,-0.0255,-0.0254,0,0.0319,0.0344,0.0432,0.0504,0.0531,0.0603,0.0694,0.0756,0.076,0.0842,0.0847,0.0777,0.0647,0.0412,0.0189,-0.0005,-0.0374,-0.0268,-0.0238,-0.0274,-0.0642,-0.0814,-0.1103,-0.1318,-0.0432,-0.0433,-0.0434,0,0.0344,0.0398,0.0502,0.0554,0.059,0.0689,0.0761,0.0816,0.0892,0.0962,0.102,0.0931,0.0928,0.0572,0.0207,-0.0124,-0.0398,-0.0353,-0.0404,-0.0655,-0.0879,-0.099,-0.1161,-0.0427,-0.0428,-0.0428,-0.0429,0,0.0399,0.0442,0.0515,0.0623,0.0718,0.0833,0.0948,0.1037,0.1124,0.1231,0.1362,0.138,0.1034,0.0724,0.0238,-0.001,-0.0598,-0.0376,-0.0645,-0.09,-0.1029,-0.1256,-0.0385,-0.0434,-0.0433,-0.0433,-0.0432,-0.0432,0.0427,0.0483,0.058,0.0698,0.0815,0.0979,0.1103,0.1264,0.1462,0.1658,0.1638,0.1732,0.121,0.0564,0.0156,-0.0597,-0.066,-0.0814,-0.1003,-0.1091,-0.1303,-0.0441,-0.0528,-0.0528,-0.0528,-0.0528,-0.0528,0,0.0489,0.0541,0.0636,0.0795,0.096,0.1004,0.1226,0.1385,0.1674,0.1885,0.2032,0.1846,0.1187,0.0477,-0.0528,-0.1086,-0.1354,-0.1418,-0.1593,-0.1747,-0.0968,-0.097,-0.1143,-0.1143,-0.1143,-0.1142,-0.1142,-0.1142,0.0499,0.0593,0.0653,0.09,0.1019,0.1246,0.1392,0.1658,0.1865,0.2163,0.2257,0.2262,0.1759,-0.0044,-0.1344,-0.1701,-0.2182,-0.2244,-0.2549,-0.2008,-0.1965,-0.1925,-0.1965,-0.2344,-0.2346,-0.3245,-0.3254,-0.326]}],[{"header":{"parameterUnit":"m.s-1","parameterCategory":2,"la1":30.2991,"la2":30.254,"lo1":-89.0895,"lo2":-89.0444,"dy":0.0017,"dx":0.0017,"nx":28,"ny":28,"refTime":"2023-04-22T21:00:00:Z","depth":"2","parameterNumber":2,"parameterNumberName":"U-component_of_CURRENTS"},"data":[0,0,0,0,0,0,0,0,0,0,0,0,0,0,0,0,0,0,0,0,0,0,0,0,0,0,0,0,0,0,0,0,0,0,0,0,0,0,0,0,0,0,0,0,0,0,0,0,0,0,0,0,0,0,0,0,0,0,0.3659,0.3659,0,0.3662,0.3661,0.3661,0.3615,0.3614,0.3613,0.3613,0.3522,0.3521,0.3519,0,0,0,0,0,0,0,0,0,0,0,0,0,0.3595,0.3596,0.3659,0.3659,0.366,0.3662,0.3661,0.3661,0.3615,0.3614,0.3613,0.3612,0.3523,0.3521,0.3519,0,0,0,0,0,0,0,0,0,0,0,0,0,0.3609,0.3597,0.3659,0.3641,0.3639,0.3662,0.3661,0.3661,0.3615,0.3614,0.3613,0.3612,0.3524,0.3521,0.3519,0.3528,0,0,0.3511,0.351,0,0,0,0,0,0,0,0,0.3608,0.361,0.3643,0.3642,0.3641,0.3641,0.3606,0.3613,0.3616,0.3619,0.3613,0.3611,0.3557,0.3552,0.355,0.3523,0.352,0.3511,0.3509,0.3508,0.3508,0,0,0,0,0,0,0,0.3607,0.361,0.3655,0.3644,0.3642,0.3627,0.3627,0.3607,0.359,0.3619,0.3617,0.3625,0.3555,0.3552,0.3547,0.3518,0.3511,0.3509,0.3507,0.3506,0.3506,0.3508,0,0,0,0,0,0,0.3619,0.3609,0.3655,0.3656,0.3626,0.3629,0.3629,0.3638,0.3592,0.3586,0.3626,0.3623,0.3557,0.355,0.3544,0.3567,0.3508,0.3506,0.3505,0.3505,0.3507,0.3508,0,0,0,0,0,0,0.3618,0.3623,0.3655,0.3636,0.364,0.3632,0.3642,0.3639,0.3642,0.3599,0.359,0.3634,0.3556,0.3547,0.3513,0.3562,0.3505,0.3503,0.3503,0.3505,0.3507,0.3602,0,0,0,0,0,0,0.3616,0.3622,0.3637,0.3637,0.3641,0.3677,0.3644,0.364,0.3651,0.3647,0.3603,0.3593,0.3554,0.3517,0.3511,0.3557,0.3501,0.3501,0.3504,0.3507,0.3597,0.3608,0.3616,0,0,0,0,0,0.3613,0.3632,0.3637,0.3643,0.366,0.3678,0.3679,0.3665,0.3653,0.3662,0.3615,0.3595,0.3532,0.3515,0.3508,0.3555,0.35,0.3503,0.3506,0.3593,0.3606,0.3616,0,0,0,0,0,0,0.3573,0.363,0.3635,0.3659,0.3676,0.3672,0.3684,0.3679,0.3654,0.3646,0.3594,0.3581,0.3576,0.3549,0.3533,0.3565,0.3522,0.3523,0.359,0.3601,0.3611,0.3631,0.3499,0,0,0,0,0,0.3584,0.3637,0.3658,0.3678,0.3692,0.3694,0.3702,0.3698,0.3678,0.3668,0.3637,0.3607,0.3587,0.3578,0.3551,0.3561,0.3578,0.3593,0.3603,0.3611,0.3624,0.3657,0.3671,0.3519,0.3519,0.3519,0,0,0.3566,0.3612,0.3632,0.3679,0.369,0.3711,0.3694,0.3716,0.373,0.3661,0.3661,0.3632,0.3593,0.3598,0.3598,0.3581,0.3676,0.3615,0.3623,0.3631,0.3662,0.3677,0.369,0.3521,0.3521,0.3521,0,0,0.3568,0.3607,0.3652,0.3684,0.3729,0.3733,0.3746,0.3757,0.376,0.3757,0.3718,0.3716,0.3678,0.3673,0.3661,0.3712,0.3717,0.3713,0.3785,0.3818,0.3831,0.3842,0.3939,0.3958,0.3726,0.3726,0.3726,0,0.3544,0.3603,0.3658,0.3708,0.3721,0.3746,0.3759,0.3786,0.378,0.3784,0.3765,0.3743,0.372,0.3736,0.376,0.3737,0.377,0.3743,0.3832,0.3843,0.3853,0.3948,0.3968,0.3731,0.3731,0.373,0.373,0,0.3573,0.3626,0.3653,0.3731,0.3748,0.3774,0.3809,0.3835,0.3838,0.3851,0.3869,0.3846,0.3834,0.3846,0.3816,0.3887,0.3895,0.3834,0.3805,0.3874,0.3971,0.399,0.3738,0.3737,0.3735,0.3734,0,0,0.3501,0.3646,0.3653,0.3692,0.3762,0.3771,0.3818,0.3851,0.3893,0.3908,0.3947,0.3945,0.3953,0.3942,0.3931,0.3976,0.4103,0.3949,0.3948,0.4053,0.4231,0.4208,0.4226,0.4049,0.4052,0.4054,0.4291,0,0.3499,0.3583,0.3649,0.3699,0.3734,0.3782,0.3825,0.3866,0.3906,0.3966,0.3988,0.4026,0.3988,0.4009,0.4044,0.4083,0.4148,0.4048,0.4142,0.4146,0.4121,0.4244,0.3847,0.402,0.4309,0.4312,0.4315,0,0.3504,0.3562,0.3609,0.3704,0.3718,0.3749,0.3808,0.3861,0.3965,0.4001,0.4052,0.4086,0.418,0.4127,0.425,0.4187,0.4223,0.4254,0.4261,0.4213,0.4156,0.3985,0.4043,0.4346,0.4344,0.4341,0.4339,0,0.3425,0.3533,0.3564,0.3596,0.3701,0.3722,0.3767,0.386,0.3941,0.4051,0.4132,0.4198,0.4304,0.4317,0.4409,0.4335,0.4557,0.4449,0.4471,0.4473,0.4141,0.4108,0.4531,0.4531,0.4531,0.453,0.4529,0,0.341,0.3435,0.3541,0.3562,0.3604,0.3684,0.376,0.3822,0.3972,0.4085,0.416,0.4273,0.4359,0.4493,0.4483,0.4583,0.4621,0.4531,0.4532,0.417,0.4138,0.4395,0.4376,0.4539,0.4537,0.4535,0.4534,0,0.3342,0.3413,0.3468,0.356,0.3584,0.3619,0.3771,0.3854,0.3994,0.4154,0.4212,0.4419,0.4589,0.4683,0.4798,0.4737,0.4782,0.4796,0.4417,0.4368,0.4659,0.4642,0.4836,0.4838,0.4839,0.4839,0.484,0,0.3295,0.3347,0.3443,0.3472,0.3519,0.3598,0.3668,0.3831,0.3949,0.4221,0.4308,0.4569,0.4659,0.4869,0.4858,0.4896,0.4917,0.4543,0.4301,0.4709,0.4691,0.4672,0.4655,0.3928,0.3921,0.3916,0.3911,0,0.3255,0.3326,0.3378,0.3431,0.3497,0.3584,0.3707,0.3789,0.4008,0.4168,0.4356,0.4445,0.4667,0.4546,0.4669,0.46,0.449,0.4434,0.4953,0.3915,0.3871,0.3848,0.3856,0.3861,0.3866,0.387,0.3873,0.3875,0.3216,0.3249,0.3346,0.3399,0.3486,0.3551,0.3543,0.3723,0.3885,0.4022,0.4214,0.4213,0.4244,0.423,0.4105,0.4056,0.4361,0.4087,0.4095,0.4111,0.3967,0.3925,0.3905,0.3909,0.3914,0.3918,0.3921,0,0.3228,0.3255,0.3292,0.3348,0.3408,0.3465,0.356,0.3503,0.3598,0.3787,0.3873,0.3546,0.3493,0.3536,0.3391,0.3396,0.3255,0.3223,0.2976,0.3034,0.3084,0.2874,0.2529,0.2524,0.2519,0.2514,0,0,0.3209,0.3211,0.323,0.3264,0.3294,0.3245,0.3229,0.3186,0.3245,0.319,0.3196,0.339,0.3477,0.2976,0.2903,0.2692,0.2821,0.2574,0.3709,0.3481,0.3523,0.3626,0.3379,0,0,0,0,0]},{"header":{"parameterUnit":"m.s-1","parameterCategory":2,"la1":30.2991,"la2":30.254,"lo1":-89.0895,"lo2":-89.0444,"dy":0.0017,"dx":0.0017,"nx":28,"ny":28,"refTime":"2023-04-22T21:00:00:Z","depth":"2","parameterNumber":3,"parameterNumberName":"V-component_of_CURRENTS"},"data":[0,0,0,0,0,0,0,0,0,0,0,0,0,0,0,0,0,0,0,0,0,0,0,0,0,0,0,0,0,0,0,0,0,0,0,0,0,0,0,0,0,0,0,0,0,0,0,0,0,0,0,0,0,0,0,0,0,0,-0.0244,-0.0244,0,-0.0264,-0.0264,-0.0264,-0.0296,-0.0297,-0.0297,-0.0298,-0.0328,-0.0328,-0.0328,0,0,0,0,0,0,0,0,0,0,0,0,0,-0.0241,-0.024,-0.0244,-0.0244,-0.0244,-0.0264,-0.0264,-0.0265,-0.0296,-0.0297,-0.0297,-0.0298,-0.0328,-0.0328,-0.0328,0,0,0,0,0,0,0,0,0,0,0,0,0,-0.025,-0.024,-0.0244,-0.0262,-0.0264,-0.0264,-0.0264,-0.0265,-0.0296,-0.0297,-0.0297,-0.0298,-0.0327,-0.0328,-0.0328,-0.0315,0,0,-0.033,-0.033,0,0,0,0,0,0,0,0,-0.0249,-0.025,-0.0259,-0.0261,-0.0263,-0.0278,-0.0274,-0.0282,-0.0296,-0.0284,-0.0298,-0.0298,-0.0311,-0.0313,-0.0315,-0.0317,-0.0318,-0.033,-0.033,-0.033,-0.033,0,0,0,0,0,0,0,-0.0249,-0.0249,-0.0252,-0.0259,-0.0261,-0.0272,-0.0274,-0.0276,-0.0293,-0.0285,-0.0287,-0.0289,-0.0312,-0.0315,-0.0316,-0.0318,-0.033,-0.033,-0.033,-0.0331,-0.032,-0.0319,0,0,0,0,0,0,-0.0244,-0.0248,-0.0252,-0.0253,-0.0257,-0.0271,-0.0274,-0.0273,-0.0293,-0.0297,-0.0288,-0.029,-0.0314,-0.0316,-0.0317,-0.0295,-0.033,-0.0331,-0.0331,-0.032,-0.032,-0.0319,0,0,0,0,0,0,-0.0244,-0.0244,-0.0251,-0.0251,-0.0253,-0.027,-0.0269,-0.0273,-0.0274,-0.0295,-0.0299,-0.0286,-0.0314,-0.0317,-0.0299,-0.0297,-0.0331,-0.0331,-0.0321,-0.032,-0.0319,-0.0255,0,0,0,0,0,0,-0.0243,-0.0243,-0.024,-0.0251,-0.0252,-0.0239,-0.0268,-0.0272,-0.0273,-0.0276,-0.0294,-0.0298,-0.0315,-0.0298,-0.0299,-0.0298,-0.0332,-0.0322,-0.032,-0.0319,-0.0257,-0.0252,-0.0247,0,0,0,0,0,-0.0243,-0.0226,-0.0239,-0.024,-0.0247,-0.0238,-0.0239,-0.0255,-0.0272,-0.0262,-0.0268,-0.0298,-0.0294,-0.0296,-0.0299,-0.0298,-0.0322,-0.0321,-0.032,-0.026,-0.0253,-0.0247,0,0,0,0,0,0,-0.0201,-0.0228,-0.0243,-0.023,-0.0231,-0.0243,-0.0232,-0.0249,-0.0246,-0.0248,-0.0274,-0.0277,-0.0266,-0.0285,-0.0288,-0.0293,-0.0319,-0.0318,-0.0274,-0.0267,-0.0262,-0.0238,-0.0332,0,0,0,0,0,-0.0195,-0.0205,-0.0216,-0.0204,-0.0202,-0.0218,-0.0217,-0.0228,-0.0229,-0.023,-0.0246,-0.0261,-0.0262,-0.0265,-0.0271,-0.0262,-0.0289,-0.0269,-0.0264,-0.0259,-0.0241,-0.0272,-0.0267,-0.0315,-0.0315,-0.0315,0,0,-0.0175,-0.0191,-0.0195,-0.0199,-0.0201,-0.0179,-0.0219,-0.0207,-0.0189,-0.0232,-0.0212,-0.0236,-0.0253,-0.0244,-0.0244,-0.026,-0.0263,-0.0257,-0.0253,-0.0238,-0.027,-0.0265,-0.0261,-0.0314,-0.0314,-0.0314,0,0,-0.013,-0.015,-0.0138,-0.0138,-0.0141,-0.0148,-0.0142,-0.0152,-0.0156,-0.0141,-0.0169,-0.0183,-0.0191,-0.0204,-0.021,-0.0177,-0.0229,-0.0195,-0.015,-0.018,-0.0176,-0.0173,-0.0212,-0.0213,-0.0197,-0.0196,-0.0196,0,-0.0104,-0.0089,-0.0127,-0.0105,-0.0088,-0.0128,-0.0085,-0.0093,-0.0099,-0.0092,-0.0125,-0.0143,-0.017,-0.0152,-0.0148,-0.0165,-0.0193,-0.0172,-0.0172,-0.0169,-0.0167,-0.0208,-0.021,-0.0193,-0.0194,-0.0194,-0.0194,0,-0.0039,-0.0031,-0.0015,-0.0008,0.0007,0.0034,0.0025,0.0031,0.0009,-0.001,-0.0008,-0.005,-0.0062,-0.0088,-0.0106,-0.0105,-0.0134,-0.0158,-0.0186,-0.0159,-0.0204,-0.0207,-0.0189,-0.019,-0.0191,-0.0191,0,0,0.0026,0.0027,0.0034,0.0058,0.0062,0.0089,0.012,0.0141,0.0164,0.0117,0.0144,0.01,0.005,0.004,-0.0006,-0.0042,-0.0069,-0.0091,-0.0095,-0.0125,-0.0142,-0.0166,-0.0173,-0.0095,-0.0095,-0.0095,-0.0183,0,0.0093,0.0155,0.0138,0.0209,0.0248,0.0228,0.0264,0.027,0.0253,0.0261,0.0194,0.0194,0.0106,0.0099,0.0047,-0.0025,-0.0072,-0.0043,-0.0167,-0.017,-0.0192,-0.0175,-0.0149,-0.0225,-0.0186,-0.0187,-0.0187,0,0.0164,0.0197,0.0278,0.0321,0.034,0.0378,0.0436,0.0457,0.0443,0.0427,0.0389,0.0332,0.0282,0.02,0.0067,0.0089,-0.0017,-0.0094,-0.01,-0.0142,-0.02,-0.0245,-0.0233,-0.0193,-0.0193,-0.0192,-0.0192,0,0.0242,0.0296,0.0366,0.0383,0.0425,0.0471,0.0502,0.0511,0.0551,0.0535,0.0564,0.0459,0.0441,0.0291,0.0119,0.0095,-0.003,-0.0086,-0.0213,-0.0218,-0.0227,-0.0232,-0.0181,-0.0181,-0.0181,-0.0181,-0.018,0,0.0315,0.0371,0.0408,0.0451,0.0552,0.0553,0.0645,0.0658,0.0686,0.0758,0.0656,0.0703,0.0465,0.0364,0.0172,-0.002,0.0004,-0.0195,-0.0235,-0.0206,-0.0207,-0.0202,-0.0203,-0.0184,-0.0183,-0.0183,-0.0182,0,0.0375,0.0396,0.048,0.0549,0.0586,0.0659,0.0758,0.0824,0.0836,0.0936,0.0948,0.0887,0.0759,0.0512,0.0275,0.0076,-0.0122,-0.0199,-0.0156,-0.0189,-0.0311,-0.0308,-0.036,-0.0361,-0.0363,-0.0364,-0.0365,0,0.0427,0.0453,0.0557,0.0641,0.0681,0.0783,0.0869,0.09,0.0997,0.1072,0.116,0.1062,0.1039,0.0673,0.0296,-0.0053,-0.01,-0.0268,-0.0316,-0.0292,-0.0326,-0.0321,-0.0317,-0.0315,-0.0315,-0.0316,-0.0316,0,0.0492,0.05,0.0573,0.0742,0.0857,0.0965,0.1105,0.1217,0.128,0.1378,0.1507,0.1488,0.1142,0.0802,0.0297,0.0052,-0.0219,-0.0286,-0.0257,-0.0268,-0.0256,-0.0287,-0.0283,-0.0319,-0.0319,-0.0318,-0.0318,-0.0318,0.0556,0.0616,0.0709,0.0864,0.0981,0.1154,0.1306,0.1457,0.1625,0.18,0.1765,0.1743,0.1319,0.0692,0.0261,-0.0221,-0.021,-0.0387,-0.0384,-0.0381,-0.0354,-0.0343,-0.0419,-0.0419,-0.0419,-0.042,-0.042,0,0.0605,0.0698,0.085,0.104,0.1166,0.1221,0.1469,0.1635,0.1884,0.1963,0.205,0.1675,0.1275,0.0784,0.0078,-0.0336,-0.0377,-0.0473,-0.0428,-0.0422,-0.0418,-0.0392,-0.0468,-0.0469,-0.047,-0.0471,0,0,0.0667,0.0835,0.091,0.1161,0.129,0.1508,0.1677,0.1911,0.2038,0.2153,0.2108,0.2014,0.1417,0.0909,0.0341,-0.0062,-0.015,-0.0151,-0.0071,0.0054,0.0064,-0.0332,-0.0281,0,0,0,0,0]}],[{"header":{"parameterUnit":"m.s-1","parameterCategory":2,"la1":30.2991,"la2":30.254,"lo1":-89.0895,"lo2":-89.0444,"dy":0.0017,"dx":0.0017,"nx":28,"ny":28,"refTime":"2023-04-22T21:00:00:Z","depth":"4","parameterNumber":2,"parameterNumberName":"U-component_of_CURRENTS"},"data":[0,0,0,0,0,0,0,0,0,0,0,0,0,0,0,0,0,0,0,0,0,0,0,0,0,0,0,0,0,0,0,0,0,0,0,0,0,0,0,0,0,0,0,0,0,0,0,0,0,0,0,0,0,0,0,0,0,0,0.1942,0.1943,0,0.2045,0.2046,0.2047,0.2126,0.2127,0.2128,0.2129,0.2291,0.2295,0.2298,0,0,0,0,0,0,0,0,0,0,0,0,0,0.1854,0.1855,0.1942,0.1943,0.1945,0.2045,0.2046,0.2048,0.2126,0.2127,0.2128,0.2129,0.229,0.2294,0.2298,0,0,0,0,0,0,0,0,0,0,0,0,0,0.1917,0.1855,0.1942,0.1996,0.2002,0.2045,0.2046,0.2048,0.2126,0.2127,0.2128,0.2129,0.2288,0.2294,0.2299,0.2309,0,0,0.2316,0.2318,0,0,0,0,0,0,0,0,0.1913,0.192,0.1987,0.1993,0.1999,0.2074,0.2075,0.2138,0.2126,0.2078,0.2129,0.213,0.2224,0.2234,0.225,0.2316,0.2323,0.2316,0.2319,0.2322,0.2323,0,0,0,0,0,0,0,0.1909,0.1917,0.1982,0.1988,0.1996,0.203,0.2039,0.2087,0.2144,0.2083,0.2089,0.2101,0.2228,0.2244,0.2254,0.2326,0.2316,0.2321,0.2324,0.2326,0.252,0.2522,0,0,0,0,0,0,0.1894,0.1912,0.1979,0.1985,0.1959,0.203,0.2041,0.2049,0.2142,0.2157,0.2099,0.2104,0.2234,0.2248,0.226,0.2389,0.2322,0.2327,0.233,0.2518,0.252,0.2522,0,0,0,0,0,0,0.1891,0.1899,0.1975,0.1952,0.1964,0.203,0.2038,0.205,0.2108,0.2155,0.2171,0.215,0.2236,0.2253,0.2355,0.2392,0.2329,0.2334,0.2516,0.2519,0.2521,0.2576,0,0,0,0,0,0,0.1888,0.1897,0.192,0.1951,0.1965,0.2028,0.2038,0.2051,0.2111,0.2119,0.2203,0.2216,0.2238,0.2347,0.2361,0.2398,0.2338,0.2513,0.2517,0.252,0.2571,0.258,0.2587,0,0,0,0,0,0.1885,0.1905,0.192,0.193,0.1987,0.2029,0.2041,0.2091,0.2113,0.2146,0.2216,0.2216,0.2378,0.2354,0.2369,0.2409,0.2511,0.2516,0.252,0.2568,0.2578,0.2587,0,0,0,0,0,0,0.1906,0.1916,0.1933,0.1965,0.2007,0.2044,0.2087,0.2112,0.219,0.2216,0.2254,0.2274,0.2382,0.2386,0.2358,0.2474,0.2439,0.2447,0.247,0.2481,0.2488,0.251,0.2343,0,0,0,0,0,0.1912,0.192,0.195,0.1986,0.2008,0.2054,0.2086,0.2119,0.2178,0.2215,0.227,0.2333,0.2401,0.2436,0.2498,0.256,0.258,0.259,0.2598,0.2605,0.2633,0.2703,0.272,0.2536,0.2536,0.2536,0,0,0.1937,0.1942,0.1954,0.199,0.203,0.2074,0.2079,0.2141,0.2194,0.2221,0.2329,0.2382,0.2432,0.2515,0.2558,0.2526,0.2664,0.261,0.2616,0.2641,0.2709,0.2727,0.2743,0.2539,0.2539,0.2538,0,0,0.1975,0.1993,0.2012,0.2041,0.2095,0.2121,0.2145,0.2204,0.2253,0.2345,0.2387,0.2466,0.2555,0.2598,0.2629,0.2716,0.272,0.2725,0.2769,0.2836,0.2852,0.2867,0.2895,0.2912,0.2708,0.2709,0.2709,0,0.2012,0.2028,0.2035,0.2065,0.2104,0.2145,0.2198,0.2246,0.2336,0.2384,0.2394,0.2555,0.2595,0.2695,0.273,0.2736,0.2766,0.2726,0.2848,0.2862,0.2876,0.2902,0.292,0.2712,0.2711,0.2711,0.2711,0,0.2049,0.2082,0.2104,0.2144,0.2193,0.2242,0.23,0.237,0.2428,0.2469,0.2598,0.2658,0.275,0.2762,0.2782,0.2893,0.2881,0.2865,0.2822,0.2898,0.292,0.2938,0.2716,0.2715,0.2714,0.2713,0,0,0.2071,0.2117,0.2134,0.2163,0.2236,0.2277,0.2377,0.2465,0.2539,0.2618,0.2718,0.2822,0.2855,0.2894,0.2917,0.2966,0.3079,0.2963,0.2965,0.2989,0.3218,0.3034,0.3035,0.3092,0.3096,0.3099,0.3186,0,0.2106,0.2162,0.2188,0.2275,0.2307,0.2378,0.2461,0.2552,0.2633,0.2737,0.2802,0.2917,0.2901,0.2968,0.3015,0.3092,0.3132,0.3056,0.3144,0.3147,0.2972,0.3052,0.3111,0.3199,0.3203,0.3206,0.3208,0,0.2117,0.2155,0.2234,0.2318,0.2349,0.2425,0.2568,0.2646,0.2783,0.2852,0.2957,0.302,0.3142,0.3108,0.3246,0.3205,0.323,0.3252,0.3255,0.3083,0.2996,0.3114,0.3239,0.3237,0.3234,0.3232,0.323,0,0.2089,0.2179,0.2243,0.2271,0.2383,0.2469,0.2557,0.2695,0.2762,0.295,0.3023,0.3157,0.3239,0.3318,0.337,0.334,0.3492,0.3443,0.3287,0.3273,0.3387,0.3371,0.3535,0.3535,0.3535,0.3535,0.3535,0,0.2063,0.2122,0.2244,0.2278,0.2379,0.2477,0.2599,0.2713,0.2855,0.2929,0.3087,0.3161,0.3304,0.3391,0.3427,0.3409,0.3539,0.3322,0.3297,0.3402,0.3387,0.3397,0.338,0.3538,0.3537,0.3537,0.3536,0,0.1994,0.2075,0.2142,0.2293,0.2358,0.2433,0.26,0.2655,0.2837,0.295,0.3024,0.3197,0.3325,0.3421,0.3545,0.3447,0.3481,0.3434,0.3546,0.3522,0.3198,0.3183,0.3273,0.3267,0.3263,0.3259,0.3256,0,0.1944,0.1972,0.2135,0.2178,0.2256,0.2382,0.2447,0.2632,0.2688,0.2935,0.2965,0.3162,0.326,0.3271,0.3401,0.3458,0.3412,0.3387,0.3288,0.3212,0.3179,0.3171,0.3163,0.3248,0.3247,0.3246,0.3245,0,0.1832,0.191,0.1968,0.2065,0.215,0.2215,0.2347,0.2377,0.2575,0.2762,0.2852,0.294,0.3057,0.3149,0.3211,0.3243,0.3392,0.3338,0.3346,0.3253,0.3183,0.3153,0.315,0.3229,0.3231,0.3232,0.3233,0,0.1739,0.1745,0.1829,0.1905,0.1994,0.2023,0.2117,0.2197,0.2286,0.2574,0.2599,0.2826,0.301,0.3039,0.311,0.3128,0.3078,0.2961,0.2988,0.3007,0.2884,0.2754,0.2668,0,0,0,0,0,0.1624,0.162,0.1658,0.1717,0.1798,0.1873,0.2019,0.2111,0.2331,0.2324,0.2457,0.2573,0.2689,0.2807,0.2776,0.3003,0.3088,0.2954,0.2965,0.314,0.3158,0.304,0,0,0,0,0,0,0.1537,0.1565,0.1589,0.1545,0.1568,0.1633,0.1732,0.1885,0.1902,0.2148,0.2225,0.2419,0.2569,0.2682,0.2726,0.2765,0.272,0.3104,0.3098,0.3129,0.3146,0.3161,0.3046,0,0,0,0,0]},{"header":{"parameterUnit":"m.s-1","parameterCategory":2,"la1":30.2991,"la2":30.254,"lo1":-89.0895,"lo2":-89.0444,"dy":0.0017,"dx":0.0017,"nx":28,"ny":28,"refTime":"2023-04-22T21:00:00:Z","depth":"4","parameterNumber":3,"parameterNumberName":"V-component_of_CURRENTS"},"data":[0,0,0,0,0,0,0,0,0,0,0,0,0,0,0,0,0,0,0,0,0,0,0,0,0,0,0,0,0,0,0,0,0,0,0,0,0,0,0,0,0,0,0,0,0,0,0,0,0,0,0,0,0,0,0,0,0,0,0.0273,0.0272,0,0.0235,0.0235,0.0234,0.0205,0.0205,0.0205,0.0205,0.0117,0.0115,0.0113,0,0,0,0,0,0,0,0,0,0,0,0,0,0.0263,0.0264,0.0273,0.0272,0.0272,0.0235,0.0235,0.0234,0.0205,0.0205,0.0205,0.0205,0.0118,0.0116,0.0113,0,0,0,0,0,0,0,0,0,0,0,0,0,0.0249,0.0264,0.0273,0.0254,0.0252,0.0235,0.0235,0.0234,0.0205,0.0205,0.0205,0.0205,0.0119,0.0116,0.0112,0.0096,0,0,0.0102,0.0101,0,0,0,0,0,0,0,0,0.025,0.0249,0.0257,0.0256,0.0253,0.0226,0.0199,0.0186,0.0205,0.0221,0.0205,0.0205,0.015,0.0144,0.0136,0.0092,0.0088,0.0102,0.01,0.0099,0.0098,0,0,0,0,0,0,0,0.0251,0.0251,0.0256,0.0257,0.0255,0.0229,0.0227,0.0196,0.0185,0.022,0.0218,0.0217,0.0149,0.014,0.0134,0.0087,0.0102,0.0099,0.0097,0.0096,0.0029,0.003,0,0,0,0,0,0,0.0262,0.0252,0.0257,0.0255,0.0253,0.023,0.0227,0.0234,0.0187,0.018,0.0217,0.0216,0.0145,0.0138,0.0131,0.012,0.0099,0.0096,0.0094,0.0029,0.003,0.003,0,0,0,0,0,0,0.0262,0.0264,0.0259,0.0253,0.0251,0.0231,0.0237,0.0233,0.0229,0.0185,0.0177,0.0218,0.0145,0.0135,0.0106,0.0115,0.0094,0.0091,0.0029,0.0029,0.003,0.009,0,0,0,0,0,0,0.0262,0.0264,0.0272,0.0255,0.0252,0.0255,0.0238,0.0233,0.0229,0.0226,0.0183,0.0175,0.0144,0.0112,0.0103,0.011,0.0088,0.0029,0.0029,0.003,0.0088,0.0092,0.0096,0,0,0,0,0,0.0262,0.0276,0.0272,0.0273,0.0264,0.0256,0.0252,0.0235,0.0229,0.023,0.0199,0.0176,0.0108,0.0109,0.0099,0.0106,0.0028,0.0029,0.0029,0.0086,0.0091,0.0096,0,0,0,0,0,0,0.0262,0.0273,0.027,0.0282,0.0273,0.0252,0.0253,0.0241,0.0219,0.0217,0.0175,0.0164,0.014,0.0115,0.0117,0.0088,0.0066,0.0065,0.0112,0.0117,0.0121,0.0133,0.0086,0,0,0,0,0,0.027,0.0293,0.0283,0.0293,0.0292,0.0274,0.0269,0.0259,0.0238,0.0229,0.0199,0.0166,0.0134,0.0121,0.0087,0.0072,0.0038,0.007,0.0075,0.0079,0.0081,0.0036,0.0037,0.0031,0.0031,0.0031,0,0,0.027,0.0281,0.0291,0.0296,0.0289,0.0293,0.0271,0.027,0.0272,0.0222,0.0214,0.0176,0.0132,0.0112,0.0101,0.0094,0.0063,0.0079,0.0083,0.0083,0.0037,0.0037,0.0037,0.0032,0.0032,0.0032,0,0,0.0287,0.0295,0.0319,0.0321,0.0322,0.031,0.0314,0.0299,0.0292,0.0277,0.0241,0.0209,0.0169,0.0138,0.0116,0.0124,0.0083,0.0118,0.0153,0.011,0.011,0.011,0.0073,0.0069,0.0126,0.0126,0.0126,0,0.0286,0.0318,0.032,0.034,0.0345,0.0323,0.0337,0.0327,0.0303,0.0298,0.0283,0.0218,0.018,0.0151,0.0155,0.0134,0.0105,0.014,0.0116,0.0115,0.0114,0.0076,0.0071,0.0129,0.0129,0.0129,0.0128,0,0.032,0.0344,0.0357,0.0383,0.0382,0.0394,0.0382,0.0383,0.037,0.035,0.0322,0.0268,0.0232,0.0215,0.0186,0.0162,0.0144,0.0123,0.0106,0.0118,0.0077,0.0071,0.0133,0.0132,0.0131,0.0131,0,0,0.0328,0.0374,0.038,0.0407,0.0411,0.042,0.0425,0.0422,0.0436,0.0396,0.04,0.0332,0.0303,0.0276,0.0235,0.0198,0.0162,0.0165,0.0161,0.0134,0.0071,0.0045,0.0035,0.0139,0.0138,0.0137,0.0049,0,0.0355,0.041,0.0418,0.0462,0.0489,0.0481,0.0493,0.0485,0.0469,0.0468,0.0406,0.039,0.0327,0.0321,0.0268,0.019,0.0146,0.0188,0.0059,0.0055,0.0034,0.0027,0.0134,0.0044,0.0042,0.0041,0.004,0,0.039,0.0427,0.0476,0.0528,0.0537,0.0556,0.0581,0.0592,0.0574,0.056,0.052,0.0474,0.0413,0.0367,0.0225,0.0256,0.017,0.0102,0.0097,0.0047,0.0017,0.0025,0.0027,0.0028,0.0029,0.003,0.0031,0,0.0417,0.0473,0.0519,0.0536,0.0577,0.0603,0.0626,0.0622,0.0657,0.063,0.0647,0.0543,0.0526,0.0388,0.0241,0.0237,0.0085,0.0062,-0.0049,-0.0051,-0.0027,-0.0026,-0.0041,-0.0041,-0.0041,-0.0041,-0.004,0,0.0452,0.0496,0.0546,0.0577,0.0651,0.0655,0.0726,0.073,0.0754,0.0804,0.0708,0.0713,0.0533,0.0426,0.0267,0.0087,0.0098,-0.0047,-0.0079,0.0001,0.0006,-0.0032,-0.003,-0.0044,-0.0043,-0.0043,-0.0042,0,0.0479,0.0508,0.0581,0.0641,0.0674,0.0731,0.0832,0.0883,0.0884,0.0951,0.0955,0.0857,0.0703,0.0504,0.0288,0.0145,-0.0039,-0.0106,0.0001,-0.0023,-0.0152,-0.0146,-0.0236,-0.0237,-0.0239,-0.024,-0.0241,0,0.0502,0.0541,0.064,0.0707,0.0746,0.084,0.0914,0.0954,0.102,0.1035,0.1076,0.0954,0.0857,0.0531,0.0299,-0.0018,-0.0067,-0.0163,-0.0173,-0.0152,-0.0174,-0.0165,-0.0157,-0.0243,-0.0244,-0.0244,-0.0244,0,0.0556,0.0589,0.0653,0.0789,0.0887,0.0994,0.1104,0.1163,0.1211,0.1212,0.1175,0.0997,0.0822,0.0541,0.0295,0.0065,-0.0106,-0.0179,-0.0178,-0.0188,-0.0163,-0.0181,-0.0171,-0.0249,-0.0249,-0.0248,-0.0248,0,0.0605,0.0666,0.0764,0.0879,0.1006,0.1122,0.1167,0.124,0.1296,0.1299,0.1279,0.1063,0.094,0.0584,0.0354,0.0122,0.0058,-0.0023,-0.0031,-0.0029,0.0044,0.0108,0.0076,0,0,0,0,0,0.0654,0.0738,0.0855,0.0983,0.1099,0.1172,0.1291,0.1321,0.1363,0.1351,0.1319,0.1143,0.079,0.0633,0.0398,0.0317,0.0015,0.0031,-0.0082,-0.0277,-0.0271,-0.0226,0,0,0,0,0,0,0.0704,0.0816,0.0869,0.1046,0.1137,0.1275,0.1349,0.1369,0.136,0.1352,0.1169,0.107,0.0729,0.0925,0.0389,0.0317,0.0209,-0.0134,-0.014,-0.0281,-0.0275,-0.0271,-0.0222,0,0,0,0,0]}]]